Time,TemperatureF,DewpointF,PressureIn,WindDirection,WindDirectionDegrees,WindSpeedMPH,WindSpeedGustMPH,Humidity,HourlyPrecipIn,Conditions,Clouds,dailyrainin,SoftwareType,DateUTC
2013-05-08 00:57:00,61.9,46.1,29.21,ESE,113,0.0,0.0,56,0.00,,,0.00,WUHU21623XXSP,2013-05-08 05:57:00,
2013-05-08 01:57:00,60.1,46.3,29.21,ESE,113,0.0,0.0,60,0.00,,,0.00,WUHU21623XXSP,2013-05-08 06:57:00,
2013-05-08 02:57:00,58.8,45.5,29.21,ESE,113,0.0,0.0,61,0.00,,,0.00,WUHU21623XXSP,2013-05-08 07:57:00,
2013-05-08 03:57:00,58.3,45.5,29.21,ESE,113,0.0,0.0,62,0.00,,,0.00,WUHU21623XXSP,2013-05-08 08:57:00,
2013-05-08 04:57:00,56.8,44.9,29.22,ESE,113,0.0,0.0,64,0.00,,,0.00,WUHU21623XXSP,2013-05-08 09:57:00,
2013-05-08 05:51:00,55.2,44.4,29.23,ESE,112,0.0,0.0,67,0.00,,,0.00,WUHU21623XXSP,2013-05-08 10:51:00,
2013-05-08 05:56:00,55.2,44.4,29.23,ESE,112,0.0,0.0,67,0.00,,,0.00,WUHU21623XXSP,2013-05-08 10:56:00,
2013-05-08 06:01:00,55.0,44.4,29.23,ESE,112,0.0,0.0,67,0.00,,,0.00,WUHU21623XXSP,2013-05-08 11:01:00,
2013-05-08 06:06:00,55.0,44.7,29.23,ESE,112,0.0,0.0,68,0.00,,,0.00,WUHU21623XXSP,2013-05-08 11:06:00,
2013-05-08 06:11:00,55.0,44.7,29.24,ESE,112,0.0,0.0,68,0.00,,,0.00,WUHU21623XXSP,2013-05-08 11:11:00,
2013-05-08 06:16:00,55.0,44.7,29.24,ESE,112,0.0,0.0,68,0.00,,,0.00,WUHU21623XXSP,2013-05-08 11:16:00,
2013-05-08 06:21:00,55.2,44.9,29.24,ESE,112,0.0,0.0,68,0.00,,,0.00,WUHU21623XXSP,2013-05-08 11:21:00,
2013-05-08 06:26:00,55.2,44.9,29.24,ESE,112,0.0,0.0,68,0.00,,,0.00,WUHU21623XXSP,2013-05-08 11:26:00,
2013-05-08 06:31:00,55.6,44.9,29.25,ESE,112,0.0,0.0,68,0.00,,,0.00,WUHU21623XXSP,2013-05-08 11:31:00,
2013-05-08 06:36:00,55.6,45.2,29.25,ESE,112,0.0,0.0,68,0.00,,,0.00,WUHU21623XXSP,2013-05-08 11:36:00,
2013-05-08 06:41:00,55.9,45.5,29.24,ESE,112,0.0,0.0,68,0.00,,,0.00,WUHU21623XXSP,2013-05-08 11:41:00,
2013-05-08 06:46:00,55.9,45.5,29.25,ESE,112,0.0,0.0,68,0.00,,,0.00,WUHU21623XXSP,2013-05-08 11:46:00,
2013-05-08 06:51:00,56.1,45.7,29.25,ESE,112,0.0,0.0,68,0.00,,,0.00,WUHU21623XXSP,2013-05-08 11:51:00,
2013-05-08 06:56:00,56.5,46.0,29.25,ESE,112,0.0,0.0,68,0.00,,,0.00,WUHU21623XXSP,2013-05-08 11:56:00,
2013-05-08 07:01:00,56.8,46.3,29.25,ESE,112,0.0,0.0,68,0.00,,,0.00,WUHU21623XXSP,2013-05-08 12:01:00,
2013-05-08 07:06:00,57.0,46.5,29.25,ESE,112,0.0,0.0,68,0.00,,,0.00,WUHU21623XXSP,2013-05-08 12:06:00,
2013-05-08 07:11:00,57.4,46.5,29.25,ESE,112,0.0,0.0,67,0.00,,,0.00,WUHU21623XXSP,2013-05-08 12:11:00,
2013-05-08 07:16:00,57.7,47.2,29.25,ESE,112,0.0,0.0,68,0.00,,,0.00,WUHU21623XXSP,2013-05-08 12:16:00,
2013-05-08 07:21:00,58.1,47.6,29.25,ESE,112,0.0,0.0,68,0.00,,,0.00,WUHU21623XXSP,2013-05-08 12:21:00,
2013-05-08 07:26:00,58.8,48.3,29.25,ESE,112,0.0,0.0,68,0.00,,,0.00,WUHU21623XXSP,2013-05-08 12:26:00,
2013-05-08 07:31:00,59.2,48.6,29.25,ESE,112,0.0,0.0,68,0.00,,,0.00,WUHU21623XXSP,2013-05-08 12:31:00,
2013-05-08 07:36:00,59.7,48.8,29.25,ESE,112,0.0,0.0,67,0.00,,,0.00,WUHU21623XXSP,2013-05-08 12:36:00,
2013-05-08 07:41:00,60.4,49.5,29.25,ESE,112,0.0,0.0,67,0.00,,,0.00,WUHU21623XXSP,2013-05-08 12:41:00,
2013-05-08 07:46:00,61.5,50.5,29.25,ESE,112,0.0,0.0,67,0.00,,,0.00,WUHU21623XXSP,2013-05-08 12:46:00,
2013-05-08 07:51:00,62.2,51.5,29.25,ESE,112,0.0,0.0,68,0.00,,,0.00,WUHU21623XXSP,2013-05-08 12:51:00,
2013-05-08 07:56:00,63.0,51.8,29.25,ESE,112,0.0,0.0,67,0.00,,,0.00,WUHU21623XXSP,2013-05-08 12:56:00,
2013-05-08 08:01:00,63.7,51.7,29.25,ESE,112,0.0,0.0,65,0.00,,,0.00,WUHU21623XXSP,2013-05-08 13:01:00,
2013-05-08 08:06:00,64.2,51.7,29.25,ESE,112,0.0,0.0,64,0.00,,,0.00,WUHU21623XXSP,2013-05-08 13:06:00,
2013-05-08 08:11:00,64.6,51.6,29.26,ESE,112,0.0,0.0,63,0.00,,,0.00,WUHU21623XXSP,2013-05-08 13:11:00,
2013-05-08 08:16:00,65.3,51.9,29.26,ESE,112,0.0,0.0,62,0.00,,,0.00,WUHU21623XXSP,2013-05-08 13:16:00,
2013-05-08 08:21:00,65.7,51.9,29.26,ESE,112,0.0,0.0,61,0.00,,,0.00,WUHU21623XXSP,2013-05-08 13:21:00,
2013-05-08 08:26:00,66.0,52.2,29.26,ESE,112,0.0,0.0,61,0.00,,,0.00,WUHU21623XXSP,2013-05-08 13:26:00,
2013-05-08 08:31:00,66.6,52.3,29.26,ESE,112,0.0,0.0,60,0.00,,,0.00,WUHU21623XXSP,2013-05-08 13:31:00,
2013-05-08 08:36:00,66.9,52.1,29.26,ESE,112,0.0,0.0,59,0.00,,,0.00,WUHU21623XXSP,2013-05-08 13:36:00,
2013-05-08 08:41:00,67.6,52.8,29.26,ESE,112,0.0,0.0,59,0.00,,,0.00,WUHU21623XXSP,2013-05-08 13:41:00,
2013-05-08 08:46:00,68.2,52.8,29.26,ESE,112,0.0,0.0,58,0.00,,,0.00,WUHU21623XXSP,2013-05-08 13:46:00,
2013-05-08 08:51:00,68.5,52.7,29.26,ESE,112,0.0,0.0,57,0.00,,,0.00,WUHU21623XXSP,2013-05-08 13:51:00,
2013-05-08 08:56:00,68.9,53.0,29.26,ESE,112,0.0,0.0,57,0.00,,,0.00,WUHU21623XXSP,2013-05-08 13:56:00,
2013-05-08 09:01:00,69.4,53.0,29.26,ESE,112,0.0,0.0,56,0.00,,,0.00,WUHU21623XXSP,2013-05-08 14:01:00,
2013-05-08 09:06:00,69.6,53.2,29.26,ESE,112,0.0,0.0,56,0.00,,,0.00,WUHU21623XXSP,2013-05-08 14:06:00,
2013-05-08 09:11:00,70.3,53.4,29.26,ESE,112,0.0,0.0,55,0.00,,,0.00,WUHU21623XXSP,2013-05-08 14:11:00,
2013-05-08 09:16:00,70.9,53.9,29.26,ESE,112,0.0,0.0,55,0.00,,,0.00,WUHU21623XXSP,2013-05-08 14:16:00,
2013-05-08 09:21:00,71.2,53.2,29.26,ESE,112,0.0,0.0,53,0.00,,,0.00,WUHU21623XXSP,2013-05-08 14:21:00,
2013-05-08 09:26:00,71.8,53.7,29.27,ESE,112,0.0,0.0,53,0.00,,,0.00,WUHU21623XXSP,2013-05-08 14:26:00,
2013-05-08 09:31:00,72.9,54.1,29.27,SE,135,0.0,0.0,52,0.00,,,0.00,WUHU21623XXSP,2013-05-08 14:31:00,
2013-05-08 09:36:00,73.2,53.9,29.26,SW,225,0.0,0.0,51,0.00,,,0.00,WUHU21623XXSP,2013-05-08 14:36:00,
2013-05-08 09:41:00,73.6,53.8,29.26,WSW,247,0.4,0.4,50,0.00,,,0.00,WUHU21623XXSP,2013-05-08 14:41:00,
2013-05-08 09:46:00,74.1,54.3,29.26,SW,225,1.1,1.1,50,0.00,,,0.00,WUHU21623XXSP,2013-05-08 14:46:00,
2013-05-08 09:51:00,74.8,55.0,29.27,SW,225,0.0,1.1,50,0.00,,,0.00,WUHU21623XXSP,2013-05-08 14:51:00,
2013-05-08 09:56:00,75.0,54.6,29.26,WSW,247,1.1,1.1,49,0.00,,,0.00,WUHU21623XXSP,2013-05-08 14:56:00,
2013-05-08 10:01:00,75.9,55.1,29.26,South,180,0.0,1.1,49,0.00,,,0.00,WUHU21623XXSP,2013-05-08 15:01:00,
2013-05-08 10:06:00,76.5,54.4,29.26,South,180,0.0,1.1,47,0.00,,,0.00,WUHU21623XXSP,2013-05-08 15:06:00,
2013-05-08 10:11:00,76.8,54.9,29.26,South,180,0.0,0.0,47,0.00,,,0.00,WUHU21623XXSP,2013-05-08 15:11:00,
2013-05-08 10:16:00,77.5,55.1,29.26,South,180,0.0,0.0,46,0.00,,,0.00,WUHU21623XXSP,2013-05-08 15:16:00,
2013-05-08 10:21:00,77.9,55.2,29.26,WSW,247,0.0,0.0,46,0.00,,,0.00,WUHU21623XXSP,2013-05-08 15:21:00,
2013-05-08 10:26:00,78.4,55.3,29.26,SSE,157,0.0,0.0,45,0.00,,,0.00,WUHU21623XXSP,2013-05-08 15:26:00,
2013-05-08 10:31:00,78.6,54.8,29.26,SSE,157,0.0,0.0,44,0.00,,,0.00,WUHU21623XXSP,2013-05-08 15:31:00,
2013-05-08 10:36:00,79.0,55.7,29.26,SSE,157,2.0,2.0,45,0.00,,,0.00,WUHU21623XXSP,2013-05-08 15:36:00,
2013-05-08 10:41:00,79.3,55.5,29.26,SSE,157,0.0,2.0,44,0.00,,,0.00,WUHU21623XXSP,2013-05-08 15:41:00,
2013-05-08 10:46:00,79.9,55.3,29.26,SW,225,0.0,2.7,43,0.00,,,0.00,WUHU21623XXSP,2013-05-08 15:46:00,
2013-05-08 10:51:00,80.2,54.7,29.26,SW,225,0.0,2.7,42,0.00,,,0.00,WUHU21623XXSP,2013-05-08 15:51:00,
2013-05-08 10:56:00,80.2,55.0,29.25,SW,225,0.0,0.0,42,0.00,,,0.00,WUHU21623XXSP,2013-05-08 15:56:00,
2013-05-08 11:01:00,80.4,54.0,29.26,West,270,0.0,0.0,40,0.00,,,0.00,WUHU21623XXSP,2013-05-08 16:01:00,
2013-05-08 11:06:00,80.4,54.4,29.26,WSW,247,0.0,0.0,42,0.00,,,0.00,WUHU21623XXSP,2013-05-08 16:06:00,
2013-05-08 11:11:00,80.6,54.8,29.25,SW,225,3.1,3.1,41,0.00,,,0.00,WUHU21623XXSP,2013-05-08 16:11:00,
2013-05-08 11:16:00,81.1,54.6,29.26,SW,225,0.0,3.1,40,0.00,,,0.00,WUHU21623XXSP,2013-05-08 16:16:00,
2013-05-08 11:21:00,81.1,54.6,29.26,SSE,157,0.0,0.0,40,0.00,,,0.00,WUHU21623XXSP,2013-05-08 16:21:00,
2013-05-08 11:26:00,81.3,54.6,29.25,SSE,157,0.0,0.0,41,0.00,,,0.00,WUHU21623XXSP,2013-05-08 16:26:00,
2013-05-08 11:31:00,81.7,55.1,29.25,SE,135,1.3,5.4,40,0.00,,,0.00,WUHU21623XXSP,2013-05-08 16:31:00,
2013-05-08 11:36:00,82.0,55.4,29.25,SSE,157,0.4,5.4,40,0.00,,,0.00,WUHU21623XXSP,2013-05-08 16:36:00,
2013-05-08 11:41:00,82.2,54.8,29.25,SSW,202,0.0,0.4,39,0.00,,,0.00,WUHU21623XXSP,2013-05-08 16:41:00,
2013-05-08 11:46:00,82.8,55.3,29.25,SSW,202,4.7,4.7,39,0.00,,,0.00,WUHU21623XXSP,2013-05-08 16:46:00,
2013-05-08 11:51:00,82.9,55.5,29.25,SSE,157,6.0,6.0,39,0.00,,,0.00,WUHU21623XXSP,2013-05-08 16:51:00,
2013-05-08 11:56:00,83.5,55.9,29.25,SSE,157,2.7,6.0,39,0.00,,,0.00,WUHU21623XXSP,2013-05-08 16:56:00,
2013-05-08 12:01:00,83.8,55.5,29.25,SE,135,0.0,6.0,38,0.00,,,0.00,WUHU21623XXSP,2013-05-08 17:01:00,
2013-05-08 12:06:00,84.0,55.5,29.24,SW,225,2.5,2.7,37,0.00,,,0.00,WUHU21623XXSP,2013-05-08 17:06:00,
2013-05-08 12:11:00,84.0,54.8,29.24,SW,225,0.4,2.5,37,0.00,,,0.00,WUHU21623XXSP,2013-05-08 17:11:00,
2013-05-08 12:16:00,84.2,55.0,29.25,WSW,247,0.0,0.4,37,0.00,,,0.00,WUHU21623XXSP,2013-05-08 17:16:00,
2013-05-08 12:21:00,84.6,56.1,29.25,SSE,157,7.8,7.8,38,0.00,,,0.00,WUHU21623XXSP,2013-05-08 17:21:00,
2013-05-08 12:26:00,84.7,54.7,29.25,SE,135,0.0,7.8,36,0.00,,,0.00,WUHU21623XXSP,2013-05-08 17:26:00,
2013-05-08 12:31:00,85.1,55.8,29.25,SSW,202,0.7,7.8,37,0.00,,,0.00,WUHU21623XXSP,2013-05-08 17:31:00,
2013-05-08 12:36:00,85.3,55.2,29.24,WSW,247,7.2,7.2,36,0.00,,,0.00,WUHU21623XXSP,2013-05-08 17:36:00,
2013-05-08 12:41:00,84.9,54.9,29.24,SW,225,0.0,7.2,36,0.00,,,0.00,WUHU21623XXSP,2013-05-08 17:41:00,
2013-05-08 12:46:00,84.7,55.5,29.24,SSW,202,0.0,0.0,37,0.00,,,0.00,WUHU21623XXSP,2013-05-08 17:46:00,
2013-05-08 12:51:00,84.9,55.7,29.24,SSW,202,0.0,0.0,37,0.00,,,0.00,WUHU21623XXSP,2013-05-08 17:51:00,
2013-05-08 12:56:00,84.9,55.7,29.24,SSE,157,2.5,2.5,37,0.00,,,0.00,WUHU21623XXSP,2013-05-08 17:56:00,
2013-05-08 13:01:00,84.9,55.7,29.24,WSW,247,0.0,2.5,37,0.00,,,0.00,WUHU21623XXSP,2013-05-08 18:01:00,
2013-05-08 13:06:00,85.1,55.7,29.24,WSW,247,0.0,2.5,38,0.00,,,0.00,WUHU21623XXSP,2013-05-08 18:06:00,
2013-05-08 13:11:00,85.3,56.0,29.23,West,270,0.0,5.6,37,0.00,,,0.00,WUHU21623XXSP,2013-05-08 18:11:00,
2013-05-08 13:16:00,85.6,56.3,29.24,SSE,157,0.0,5.6,37,0.00,,,0.00,WUHU21623XXSP,2013-05-08 18:16:00,
2013-05-08 13:21:00,86.0,55.8,29.24,South,180,0.0,4.9,36,0.00,,,0.00,WUHU21623XXSP,2013-05-08 18:21:00,
2013-05-08 13:26:00,86.2,55.8,29.23,South,180,0.0,0.0,36,0.00,,,0.00,WUHU21623XXSP,2013-05-08 18:26:00,
2013-05-08 13:31:00,86.4,56.1,29.23,SW,225,2.7,2.7,36,0.00,,,0.00,WUHU21623XXSP,2013-05-08 18:31:00,
2013-05-08 13:36:00,86.4,55.3,29.23,WSW,247,5.6,5.6,35,0.00,,,0.00,WUHU21623XXSP,2013-05-08 18:36:00,
2013-05-08 13:41:00,86.2,55.2,29.23,WSW,247,0.0,5.6,35,0.00,,,0.00,WUHU21623XXSP,2013-05-08 18:41:00,
2013-05-08 13:46:00,85.8,54.9,29.23,South,180,1.1,2.9,35,0.00,,,0.00,WUHU21623XXSP,2013-05-08 18:46:00,
2013-05-08 13:51:00,85.8,54.9,29.23,SW,225,0.0,2.9,35,0.00,,,0.00,WUHU21623XXSP,2013-05-08 18:51:00,
2013-05-08 13:56:00,86.2,55.2,29.23,SW,225,0.0,1.1,35,0.00,,,0.00,WUHU21623XXSP,2013-05-08 18:56:00,
2013-05-08 14:01:00,86.2,55.2,29.23,SSE,157,1.3,6.5,35,0.00,,,0.00,WUHU21623XXSP,2013-05-08 19:01:00,
2013-05-08 14:06:00,85.8,55.2,29.23,SW,225,4.9,6.5,34,0.00,,,0.00,WUHU21623XXSP,2013-05-08 19:06:00,
2013-05-08 14:11:00,85.6,55.5,29.23,SSE,157,3.6,4.9,36,0.00,,,0.00,WUHU21623XXSP,2013-05-08 19:11:00,
2013-05-08 14:15:00,85.6,54.7,29.23,WSW,247,0.0,3.6,35,0.00,,,0.00,WUHU21623XXSP,2013-05-08 19:15:00,
2013-05-08 14:20:00,85.8,54.1,29.22,South,180,0.0,0.2,34,0.00,,,0.00,WUHU21623XXSP,2013-05-08 19:20:00,
2013-05-08 14:25:00,85.6,53.9,29.22,West,270,3.1,3.4,34,0.00,,,0.00,WUHU21623XXSP,2013-05-08 19:25:00,
2013-05-08 14:30:00,84.9,53.3,29.22,SW,225,1.8,3.4,34,0.00,,,0.00,WUHU21623XXSP,2013-05-08 19:30:00,
2013-05-08 14:35:00,84.7,53.9,29.22,SSE,157,4.5,4.5,35,0.00,,,0.00,WUHU21623XXSP,2013-05-08 19:35:00,
2013-05-08 14:40:00,84.4,53.6,29.22,SE,135,6.9,6.9,35,0.00,,,0.00,WUHU21623XXSP,2013-05-08 19:40:00,
2013-05-08 14:45:00,84.0,54.0,29.22,SW,225,6.0,6.9,36,0.00,,,0.00,WUHU21623XXSP,2013-05-08 19:45:00,
2013-05-08 14:50:00,84.0,54.0,29.22,SSW,202,0.0,6.0,36,0.00,,,0.00,WUHU21623XXSP,2013-05-08 19:50:00,
2013-05-08 14:55:00,84.0,53.3,29.22,WSW,247,0.0,2.7,35,0.00,,,0.00,WUHU21623XXSP,2013-05-08 19:55:00,
2013-05-08 15:00:00,84.0,53.3,29.22,SSW,202,7.6,7.6,35,0.00,,,0.00,WUHU21623XXSP,2013-05-08 20:00:00,
2013-05-08 15:05:00,83.5,53.6,29.22,SSE,157,0.0,7.6,36,0.00,,,0.00,WUHU21623XXSP,2013-05-08 20:05:00,
2013-05-08 15:10:00,83.3,53.4,29.22,SSW,202,0.0,0.0,36,0.00,,,0.00,WUHU21623XXSP,2013-05-08 20:10:00,
2013-05-08 15:15:00,83.1,54.0,29.21,WSW,247,2.2,2.9,37,0.00,,,0.00,WUHU21623XXSP,2013-05-08 20:15:00,
2013-05-08 15:20:00,82.8,52.9,29.22,WSW,247,0.0,2.9,36,0.00,,,0.00,WUHU21623XXSP,2013-05-08 20:20:00,
2013-05-08 15:25:00,82.6,52.8,29.21,WSW,247,0.0,2.9,36,0.00,,,0.00,WUHU21623XXSP,2013-05-08 20:25:00,
2013-05-08 15:30:00,82.2,53.2,29.21,SSW,202,4.0,4.0,37,0.00,,,0.00,WUHU21623XXSP,2013-05-08 20:30:00,
2013-05-08 15:35:00,82.6,53.5,29.21,SSW,202,0.0,4.0,37,0.00,,,0.00,WUHU21623XXSP,2013-05-08 20:35:00,
2013-05-08 15:40:00,82.8,53.5,29.21,SW,225,1.1,1.1,37,0.00,,,0.00,WUHU21623XXSP,2013-05-08 20:40:00,
2013-05-08 15:45:00,83.5,54.4,29.21,West,270,0.0,2.0,37,0.00,,,0.00,WUHU21623XXSP,2013-05-08 20:45:00,
2013-05-08 15:50:00,83.3,52.6,29.21,West,270,0.0,2.0,35,0.00,,,0.00,WUHU21623XXSP,2013-05-08 20:50:00,
2013-05-08 15:55:00,83.1,52.4,29.20,West,270,0.0,0.0,35,0.00,,,0.00,WUHU21623XXSP,2013-05-08 20:55:00,
2013-05-08 16:00:00,84.0,52.5,29.20,SSE,157,0.0,0.0,34,0.00,,,0.00,WUHU21623XXSP,2013-05-08 21:00:00,
2013-05-08 16:05:00,84.6,53.7,29.20,West,270,1.1,1.1,35,0.00,,,0.00,WUHU21623XXSP,2013-05-08 21:05:00,
2013-05-08 16:10:00,85.1,55.0,29.20,SSW,202,0.0,1.6,36,0.00,,,0.00,WUHU21623XXSP,2013-05-08 21:10:00,
2013-05-08 16:15:00,86.2,56.0,29.20,West,270,0.4,2.9,36,0.00,,,0.00,WUHU21623XXSP,2013-05-08 21:15:00,
2013-05-08 16:20:00,86.7,55.5,29.20,WSW,247,0.0,2.9,35,0.00,,,0.00,WUHU21623XXSP,2013-05-08 21:20:00,
2013-05-08 16:25:00,87.1,56.0,29.20,SW,225,0.0,0.0,35,0.00,,,0.00,WUHU21623XXSP,2013-05-08 21:25:00,
2013-05-08 16:30:00,87.3,55.3,29.20,SE,135,0.0,0.0,34,0.00,,,0.00,WUHU21623XXSP,2013-05-08 21:30:00,
2013-05-08 16:35:00,86.7,54.3,29.20,SE,135,0.0,0.0,33,0.00,,,0.00,WUHU21623XXSP,2013-05-08 21:35:00,
2013-05-08 16:40:00,86.0,53.7,29.20,SE,135,0.0,0.0,33,0.00,,,0.00,WUHU21623XXSP,2013-05-08 21:40:00,
2013-05-08 16:45:00,85.3,52.8,29.19,South,180,0.0,0.0,33,0.00,,,0.00,WUHU21623XXSP,2013-05-08 21:45:00,
2013-05-08 16:50:00,85.1,53.4,29.20,South,180,0.0,0.0,34,0.00,,,0.00,WUHU21623XXSP,2013-05-08 21:50:00,
2013-05-08 16:55:00,84.7,53.1,29.19,WSW,247,2.0,2.0,34,0.00,,,0.00,WUHU21623XXSP,2013-05-08 21:55:00,
2013-05-08 17:00:00,84.0,52.6,29.20,SW,225,0.0,2.0,34,0.00,,,0.00,WUHU21623XXSP,2013-05-08 22:00:00,
2013-05-08 17:05:00,83.5,53.1,29.19,South,180,0.0,0.0,35,0.00,,,0.00,WUHU21623XXSP,2013-05-08 22:05:00,
2013-05-08 17:10:00,83.3,52.6,29.20,South,180,0.0,0.0,35,0.00,,,0.00,WUHU21623XXSP,2013-05-08 22:10:00,
2013-05-08 17:15:00,82.9,53.1,29.20,SSE,157,0.0,0.0,36,0.00,,,0.00,WUHU21623XXSP,2013-05-08 22:15:00,
2013-05-08 17:20:00,82.8,53.7,29.19,SSE,157,0.0,0.0,37,0.00,,,0.00,WUHU21623XXSP,2013-05-08 22:20:00,
2013-05-08 17:25:00,82.4,52.6,29.20,West,270,0.0,0.0,36,0.00,,,0.00,WUHU21623XXSP,2013-05-08 22:25:00,
2013-05-08 17:30:00,82.0,53.1,29.20,SSE,157,0.0,2.2,37,0.00,,,0.00,WUHU21623XXSP,2013-05-08 22:30:00,
2013-05-08 17:35:00,81.7,52.8,29.20,SSE,157,0.0,2.2,37,0.00,,,0.00,WUHU21623XXSP,2013-05-08 22:35:00,
2013-05-08 17:40:00,81.1,52.3,29.20,SSW,202,0.0,0.0,37,0.00,,,0.00,WUHU21623XXSP,2013-05-08 22:40:00,
2013-05-08 17:45:00,80.6,52.6,29.20,West,270,0.0,0.0,38,0.00,,,0.00,WUHU21623XXSP,2013-05-08 22:45:00,
2013-05-08 17:50:00,80.2,52.4,29.20,West,270,0.0,0.0,38,0.00,,,0.00,WUHU21623XXSP,2013-05-08 22:50:00,
2013-05-08 17:55:00,79.9,52.1,29.20,West,270,0.0,0.0,39,0.00,,,0.00,WUHU21623XXSP,2013-05-08 22:55:00,
2013-05-08 18:00:00,79.3,52.2,29.20,West,270,0.0,0.0,39,0.00,,,0.00,WUHU21623XXSP,2013-05-08 23:00:00,
2013-05-08 18:05:00,79.0,52.1,29.20,West,270,0.0,0.0,40,0.00,,,0.00,WUHU21623XXSP,2013-05-08 23:05:00,
2013-05-08 18:10:00,78.8,52.5,29.20,WSW,247,0.0,0.0,40,0.00,,,0.00,WUHU21623XXSP,2013-05-08 23:10:00,
2013-05-08 18:15:00,78.6,53.0,29.20,WSW,247,0.0,0.0,41,0.00,,,0.00,WUHU21623XXSP,2013-05-08 23:15:00,
2013-05-08 18:20:00,78.4,52.8,29.20,SW,225,0.0,0.0,41,0.00,,,0.00,WUHU21623XXSP,2013-05-08 23:20:00,
2013-05-08 18:25:00,78.1,52.5,29.19,SW,225,0.0,0.0,41,0.00,,,0.00,WUHU21623XXSP,2013-05-08 23:25:00,
2013-05-08 18:30:00,77.7,52.9,29.20,SW,225,0.0,0.0,42,0.00,,,0.00,WUHU21623XXSP,2013-05-08 23:30:00,
2013-05-08 18:35:00,77.5,52.6,29.20,SW,225,0.0,0.0,42,0.00,,,0.00,WUHU21623XXSP,2013-05-08 23:35:00,
2013-05-08 18:40:00,77.2,52.9,29.19,SW,225,0.0,0.0,43,0.00,,,0.00,WUHU21623XXSP,2013-05-08 23:40:00,
2013-05-08 18:45:00,77.0,52.7,29.19,SW,225,0.0,0.0,43,0.00,,,0.00,WUHU21623XXSP,2013-05-08 23:45:00,
2013-05-08 18:50:00,76.8,52.6,29.19,SW,225,0.0,0.0,43,0.00,,,0.00,WUHU21623XXSP,2013-05-08 23:50:00,
2013-05-08 18:55:00,76.6,53.0,29.20,West,270,3.1,3.1,44,0.00,,,0.00,WUHU21623XXSP,2013-05-08 23:55:00,
2013-05-08 19:00:00,75.9,53.0,29.20,West,270,0.0,3.1,45,0.00,,,0.00,WUHU21623XXSP,2013-05-09 00:00:00,
2013-05-08 19:05:00,75.4,53.4,29.20,WNW,292,3.1,3.1,46,0.00,,,0.00,WUHU21623XXSP,2013-05-09 00:05:00,
2013-05-08 19:10:00,74.7,53.6,29.20,NW,315,2.5,3.1,48,0.00,,,0.00,WUHU21623XXSP,2013-05-09 00:10:00,
2013-05-08 19:15:00,73.6,53.8,29.20,WNW,292,0.0,2.5,50,0.00,,,0.00,WUHU21623XXSP,2013-05-09 00:15:00,
2013-05-08 19:20:00,72.9,53.6,29.20,NW,315,0.0,2.5,51,0.00,,,0.00,WUHU21623XXSP,2013-05-09 00:20:00,
2013-05-08 19:25:00,72.3,53.6,29.20,NNE,22,0.0,0.0,52,0.00,,,0.00,WUHU21623XXSP,2013-05-09 00:25:00,
2013-05-08 19:30:00,71.8,53.2,29.20,SW,225,0.0,0.0,52,0.00,,,0.00,WUHU21623XXSP,2013-05-09 00:30:00,
2013-05-08 19:35:00,71.8,53.7,29.20,North,0,0.0,0.0,53,0.00,,,0.00,WUHU21623XXSP,2013-05-09 00:35:00,
2013-05-08 19:40:00,71.4,53.8,29.20,WNW,292,0.0,0.0,54,0.00,,,0.00,WUHU21623XXSP,2013-05-09 00:40:00,
2013-05-08 19:45:00,71.2,53.7,29.20,NNE,22,0.0,1.6,54,0.00,,,0.00,WUHU21623XXSP,2013-05-09 00:45:00,
2013-05-08 19:50:00,70.9,53.9,29.20,NNE,22,0.0,1.6,55,0.00,,,0.00,WUHU21623XXSP,2013-05-09 00:50:00,
2013-05-08 19:55:00,70.7,53.7,29.20,NNE,22,0.0,0.0,55,0.00,,,0.00,WUHU21623XXSP,2013-05-09 00:55:00,
2013-05-08 20:00:00,70.3,53.9,29.20,NNE,22,0.0,0.0,56,0.00,,,0.00,WUHU21623XXSP,2013-05-09 01:00:00,
2013-05-08 20:05:00,70.2,53.7,29.20,NNE,22,0.0,0.0,56,0.00,,,0.00,WUHU21623XXSP,2013-05-09 01:05:00,
2013-05-08 20:10:00,70.0,53.5,29.20,NNE,22,0.0,0.2,56,0.00,,,0.00,WUHU21623XXSP,2013-05-09 01:10:00,
2013-05-08 20:15:00,70.0,53.5,29.20,NNE,22,0.0,0.2,56,0.00,,,0.00,WUHU21623XXSP,2013-05-09 01:15:00,
2013-05-08 20:20:00,69.8,53.9,29.20,NNE,22,0.0,0.0,57,0.00,,,0.00,WUHU21623XXSP,2013-05-09 01:20:00,
2013-05-08 20:25:00,69.6,53.2,29.20,NNE,22,0.0,0.0,56,0.00,,,0.00,WUHU21623XXSP,2013-05-09 01:25:00,
2013-05-08 20:30:00,69.4,53.0,29.20,NNE,22,0.0,0.0,56,0.00,,,0.00,WUHU21623XXSP,2013-05-09 01:30:00,
2013-05-08 20:35:00,69.4,53.0,29.20,NNE,22,0.0,0.0,56,0.00,,,0.00,WUHU21623XXSP,2013-05-09 01:35:00,
2013-05-08 20:40:00,69.4,53.5,29.20,NNE,22,0.0,0.0,57,0.00,,,0.00,WUHU21623XXSP,2013-05-09 01:40:00,
2013-05-08 20:45:00,69.1,53.2,29.20,NNE,22,0.0,0.9,57,0.00,,,0.00,WUHU21623XXSP,2013-05-09 01:45:00,
2013-05-08 20:50:00,69.1,53.2,29.20,NNE,22,0.0,0.9,57,0.00,,,0.00,WUHU21623XXSP,2013-05-09 01:50:00,
2013-05-08 20:55:00,68.9,53.0,29.20,NNE,22,0.0,0.0,57,0.00,,,0.00,WUHU21623XXSP,2013-05-09 01:55:00,
2013-05-08 21:00:00,68.7,53.3,29.20,NNE,22,0.0,0.0,58,0.00,,,0.00,WUHU21623XXSP,2013-05-09 02:00:00,
2013-05-08 21:05:00,68.5,53.6,29.20,NNE,22,0.0,0.0,59,0.00,,,0.00,WUHU21623XXSP,2013-05-09 02:05:00,
2013-05-08 21:10:00,68.5,53.6,29.20,NNE,22,0.0,0.0,59,0.00,,,0.00,WUHU21623XXSP,2013-05-09 02:10:00,
2013-05-08 21:15:00,68.4,53.5,29.21,NNE,22,0.0,0.0,59,0.00,,,0.00,WUHU21623XXSP,2013-05-09 02:15:00,
2013-05-08 21:20:00,68.2,53.3,29.20,NNE,22,0.0,0.0,59,0.00,,,0.00,WUHU21623XXSP,2013-05-09 02:20:00,
2013-05-08 21:25:00,68.2,53.3,29.21,NNE,22,0.0,0.0,59,0.00,,,0.00,WUHU21623XXSP,2013-05-09 02:25:00,
2013-05-08 21:30:00,68.2,53.8,29.20,NNE,22,0.0,0.0,60,0.00,,,0.00,WUHU21623XXSP,2013-05-09 02:30:00,
2013-05-08 21:35:00,68.0,53.6,29.21,NNE,22,0.0,0.0,60,0.00,,,0.00,WUHU21623XXSP,2013-05-09 02:35:00,
2013-05-08 21:40:00,67.8,53.4,29.21,NNE,22,0.0,0.0,60,0.00,,,0.00,WUHU21623XXSP,2013-05-09 02:40:00,
2013-05-08 21:45:00,67.8,53.9,29.21,NNE,22,0.0,0.0,61,0.00,,,0.00,WUHU21623XXSP,2013-05-09 02:45:00,
2013-05-08 21:50:00,67.8,53.9,29.21,NNE,22,0.0,0.0,61,0.00,,,0.00,WUHU21623XXSP,2013-05-09 02:50:00,
2013-05-08 21:55:00,67.8,53.9,29.21,NNE,22,0.0,0.0,61,0.00,,,0.00,WUHU21623XXSP,2013-05-09 02:55:00,
2013-05-08 22:00:00,67.6,53.7,29.21,NNE,22,0.0,0.0,61,0.00,,,0.00,WUHU21623XXSP,2013-05-09 03:00:00,
2013-05-08 22:05:00,67.6,53.7,29.21,NNE,22,0.0,0.0,61,0.00,,,0.00,WUHU21623XXSP,2013-05-09 03:05:00,
2013-05-08 22:10:00,67.6,53.7,29.21,NNE,22,0.0,0.0,61,0.00,,,0.00,WUHU21623XXSP,2013-05-09 03:10:00,
2013-05-08 22:15:00,67.5,53.5,29.21,NNE,22,0.0,0.0,61,0.00,,,0.00,WUHU21623XXSP,2013-05-09 03:15:00,
2013-05-08 22:20:00,67.3,53.8,29.21,NNE,22,0.0,0.0,62,0.00,,,0.00,WUHU21623XXSP,2013-05-09 03:20:00,
2013-05-08 22:25:00,67.3,53.8,29.21,NNE,22,0.0,0.0,62,0.00,,,0.00,WUHU21623XXSP,2013-05-09 03:25:00,
2013-05-08 22:30:00,67.1,53.6,29.20,NNE,22,0.0,0.0,62,0.00,,,0.00,WUHU21623XXSP,2013-05-09 03:30:00,
2013-05-08 22:35:00,67.1,53.6,29.20,NNE,22,0.0,0.0,62,0.00,,,0.00,WUHU21623XXSP,2013-05-09 03:35:00,
2013-05-08 22:40:00,67.1,53.6,29.21,NNE,22,0.0,0.0,62,0.00,,,0.00,WUHU21623XXSP,2013-05-09 03:40:00,
2013-05-08 22:45:00,66.9,53.5,29.21,WSW,247,0.0,0.0,62,0.00,,,0.00,WUHU21623XXSP,2013-05-09 03:45:00,
2013-05-08 22:50:00,66.9,53.5,29.21,SSW,202,0.0,0.0,62,0.00,,,0.00,WUHU21623XXSP,2013-05-09 03:50:00,
2013-05-08 22:57:00,66.9,53.6,29.20,SSW,203,0.0,0.0,62,0.00,,,0.00,WUHU21623XXSP,2013-05-09 03:57:00,
2013-05-08 23:57:00,66.0,54.1,29.19,SSW,203,0.0,0.0,65,0.00,,,0.00,WUHU21623XXSP,2013-05-09 04:57:00,